owner,sensor,date,latitude,longitude,vertical_datum,mass_concentration_of_oxygen_in_sea_water,qcFlag 
SCCF RECON,ioos:station:SCCF:18:1,2017-04-01T00:00:00Z,26.6955,-81.8138,1.81,5.51,1111122 
SCCF RECON,ioos:station:SCCF:18:1,2017-04-01T01:00:00Z,26.6955,-81.8138,1.75,5.86,1111122 
SCCF RECON,ioos:station:SCCF:18:1,2017-04-01T02:00:00Z,26.6955,-81.8138,1.66,5.67,1111122 
SCCF RECON,ioos:station:SCCF:18:1,2017-04-01T03:00:00Z,26.6955,-81.8138,1.58,5.6,1111122 
SCCF RECON,ioos:station:SCCF:18:1,2017-04-01T04:00:00Z,26.6955,-81.8138,1.523,5.4,1111122 
SCCF RECON,ioos:station:SCCF:18:1,2017-04-01T05:00:00Z,26.6955,-81.8138,1.457,5.25,1111122 
SCCF RECON,ioos:station:SCCF:18:1,2017-04-01T06:00:00Z,26.6955,-81.8138,1.39,5.15,1111122 
SCCF RECON,ioos:station:SCCF:18:1,2017-04-01T07:00:00Z,26.6955,-81.8138,1.344,5.05,1111122 
SCCF RECON,ioos:station:SCCF:18:1,2017-04-01T08:00:00Z,26.6955,-81.8138,1.33,4.49,1111122 
SCCF RECON,ioos:station:SCCF:18:1,2017-04-01T09:00:00Z,26.6955,-81.8138,1.38,4.43,1111122 
SCCF RECON,ioos:station:SCCF:18:1,2017-04-01T10:00:00Z,26.6955,-81.8138,1.44,4.29,1111122 
SCCF RECON,ioos:station:SCCF:18:1,2017-04-01T11:00:00Z,26.6955,-81.8138,1.509,4.02,1111122 
SCCF RECON,ioos:station:SCCF:18:1,2017-04-01T12:00:00Z,26.6955,-81.8138,1.54,4.57,1111122 
SCCF RECON,ioos:station:SCCF:18:1,2017-04-01T13:00:00Z,26.6955,-81.8138,1.538,4.79,1111122 
SCCF RECON,ioos:station:SCCF:18:1,2017-04-01T14:00:00Z,26.6955,-81.8138,1.484,4.62,1111122 
SCCF RECON,ioos:station:SCCF:18:1,2017-04-01T15:00:00Z,26.6955,-81.8138,1.428,4.92,1111122 
SCCF RECON,ioos:station:SCCF:18:1,2017-04-01T16:00:00Z,26.6955,-81.8138,1.377,4.73,1111122 
SCCF RECON,ioos:station:SCCF:18:1,2017-04-01T17:00:00Z,26.6955,-81.8138,1.35,5.01,1111122 
SCCF RECON,ioos:station:SCCF:18:1,2017-04-01T18:00:00Z,26.6955,-81.8138,1.335,4.93,1111122 
SCCF RECON,ioos:station:SCCF:18:1,2017-04-01T19:00:00Z,26.6955,-81.8138,1.361,5.04,1111122 
SCCF RECON,ioos:station:SCCF:18:1,2017-04-01T20:00:00Z,26.6955,-81.8138,1.45,5.24,1111122 
SCCF RECON,ioos:station:SCCF:18:1,2017-04-01T21:00:00Z,26.6955,-81.8138,1.536,4.87,1111122 
SCCF RECON,ioos:station:SCCF:18:1,2017-04-01T22:00:00Z,26.6955,-81.8138,1.599,5.7,1111122 
SCCF RECON,ioos:station:SCCF:18:1,2017-04-01T23:00:00Z,26.6955,-81.8138,1.63,5.82,1111122 
SCCF RECON,ioos:station:SCCF:18:1,2017-04-02T00:00:00Z,26.6955,-81.8138,1.641,5.9,1111122 
SCCF RECON,ioos:station:SCCF:18:1,2017-04-02T01:00:00Z,26.6955,-81.8138,1.598,5.73,1111122 
SCCF RECON,ioos:station:SCCF:18:1,2017-04-02T02:00:00Z,26.6955,-81.8138,1.53,5.73,1111122 
SCCF RECON,ioos:station:SCCF:18:1,2017-04-02T03:00:00Z,26.6955,-81.8138,1.467,5.53,1111122 
SCCF RECON,ioos:station:SCCF:18:1,2017-04-02T04:00:00Z,26.6955,-81.8138,1.418,5.47,1111122 
SCCF RECON,ioos:station:SCCF:18:1,2017-04-02T05:00:00Z,26.6955,-81.8138,1.367,5.59,1111122 
SCCF RECON,ioos:station:SCCF:18:1,2017-04-02T06:00:00Z,26.6955,-81.8138,1.307,5.58,1111122 
SCCF RECON,ioos:station:SCCF:18:1,2017-04-02T07:00:00Z,26.6955,-81.8138,1.244,5.44,1111122 
SCCF RECON,ioos:station:SCCF:18:1,2017-04-02T08:00:00Z,26.6955,-81.8138,1.2,5.3,1111122 
SCCF RECON,ioos:station:SCCF:18:1,2017-04-02T09:00:00Z,26.6955,-81.8138,1.19,5.05,1111122 
SCCF RECON,ioos:station:SCCF:18:1,2017-04-02T10:00:00Z,26.6955,-81.8138,1.241,4.92,1111122 
SCCF RECON,ioos:station:SCCF:18:1,2017-04-02T11:00:00Z,26.6955,-81.8138,1.31,4.11,1111122 
SCCF RECON,ioos:station:SCCF:18:1,2017-04-02T12:00:00Z,26.6955,-81.8138,1.375,4.51,1111122 
SCCF RECON,ioos:station:SCCF:18:1,2017-04-02T13:00:00Z,26.6955,-81.8138,1.4,4.56,1111122 
SCCF RECON,ioos:station:SCCF:18:1,2017-04-02T14:00:00Z,26.6955,-81.8138,1.42,4.55,1111122 
SCCF RECON,ioos:station:SCCF:18:1,2017-04-02T15:00:00Z,26.6955,-81.8138,1.41,5.45,1111122 
SCCF RECON,ioos:station:SCCF:18:1,2017-04-02T16:00:00Z,26.6955,-81.8138,1.394,5.55,1111122 
SCCF RECON,ioos:station:SCCF:18:1,2017-04-02T17:00:00Z,26.6955,-81.8138,1.37,5.91,1111122 
SCCF RECON,ioos:station:SCCF:18:1,2017-04-02T18:00:00Z,26.6955,-81.8138,1.36,5.79,1111122 
SCCF RECON,ioos:station:SCCF:18:1,2017-04-02T19:00:00Z,26.6955,-81.8138,1.371,5.31,1111122 
SCCF RECON,ioos:station:SCCF:18:1,2017-04-02T20:00:00Z,26.6955,-81.8138,1.418,6.45,1111122 
SCCF RECON,ioos:station:SCCF:18:1,2017-04-02T21:00:00Z,26.6955,-81.8138,1.51,6.24,1111122 
SCCF RECON,ioos:station:SCCF:18:1,2017-04-02T22:00:00Z,26.6955,-81.8138,1.578,5.33,1111122 
SCCF RECON,ioos:station:SCCF:18:1,2017-04-02T23:00:00Z,26.6955,-81.8138,1.6,5.5,1111122 
SCCF RECON,ioos:station:SCCF:18:1,2017-04-03T00:00:00Z,26.6955,-81.8138,1.638,5.7,1111122 
SCCF RECON,ioos:station:SCCF:18:1,2017-04-03T01:00:00Z,26.6955,-81.8138,1.65,6.33,1111122 
SCCF RECON,ioos:station:SCCF:18:1,2017-04-03T02:00:00Z,26.6955,-81.8138,1.63,6.53,1111122 
SCCF RECON,ioos:station:SCCF:18:1,2017-04-03T03:00:00Z,26.6955,-81.8138,1.549,6.41,1111122 
SCCF RECON,ioos:station:SCCF:18:1,2017-04-03T04:00:00Z,26.6955,-81.8138,1.48,6.15,1111122 
SCCF RECON,ioos:station:SCCF:18:1,2017-04-03T05:00:00Z,26.6955,-81.8138,1.428,5.89,1111122 
SCCF RECON,ioos:station:SCCF:18:1,2017-04-03T06:00:00Z,26.6955,-81.8138,1.38,5.75,1111122 
SCCF RECON,ioos:station:SCCF:18:1,2017-04-03T07:00:00Z,26.6955,-81.8138,1.31,5.64,1111122 
SCCF RECON,ioos:station:SCCF:18:1,2017-04-03T08:00:00Z,26.6955,-81.8138,1.25,5.47,1111122 
SCCF RECON,ioos:station:SCCF:18:1,2017-04-03T09:00:00Z,26.6955,-81.8138,1.213,5.47,1111122 
SCCF RECON,ioos:station:SCCF:18:1,2017-04-03T10:00:00Z,26.6955,-81.8138,1.207,5.44,1111122 
SCCF RECON,ioos:station:SCCF:18:1,2017-04-03T11:00:00Z,26.6955,-81.8138,1.252,5.34,1111122 
SCCF RECON,ioos:station:SCCF:18:1,2017-04-03T12:00:00Z,26.6955,-81.8138,1.32,4.53,1111122 
SCCF RECON,ioos:station:SCCF:18:1,2017-04-03T13:00:00Z,26.6955,-81.8138,1.39,4.66,1111122 
SCCF RECON,ioos:station:SCCF:18:1,2017-04-03T14:00:00Z,26.6955,-81.8138,1.43,4.7,1111122 
SCCF RECON,ioos:station:SCCF:18:1,2017-04-03T15:00:00Z,26.6955,-81.8138,1.48,4.94,1111122 
SCCF RECON,ioos:station:SCCF:18:1,2017-04-03T16:00:00Z,26.6955,-81.8138,1.513,5.24,1111122 
SCCF RECON,ioos:station:SCCF:18:1,2017-04-03T17:00:00Z,26.6955,-81.8138,1.522,4.84,1111122 
SCCF RECON,ioos:station:SCCF:18:1,2017-04-03T18:00:00Z,26.6955,-81.8138,1.528,6.2,1111122 
SCCF RECON,ioos:station:SCCF:18:1,2017-04-03T19:00:00Z,26.6955,-81.8138,1.552,5.96,1111122 
SCCF RECON,ioos:station:SCCF:18:1,2017-04-03T20:00:00Z,26.6955,-81.8138,1.57,6.69,1111122 
SCCF RECON,ioos:station:SCCF:18:1,2017-04-03T21:00:00Z,26.6955,-81.8138,1.61,6.56,1111122 
SCCF RECON,ioos:station:SCCF:18:1,2017-04-03T22:00:00Z,26.6955,-81.8138,1.63,6.78,1111122 
SCCF RECON,ioos:station:SCCF:18:1,2017-04-03T23:00:00Z,26.6955,-81.8138,1.67,6.58,1111122 
SCCF RECON,ioos:station:SCCF:18:1,2017-04-04T00:00:00Z,26.6955,-81.8138,1.71,6.35,1111122 
SCCF RECON,ioos:station:SCCF:18:1,2017-04-04T01:00:00Z,26.6955,-81.8138,1.72,5.94,1111122 
SCCF RECON,ioos:station:SCCF:18:1,2017-04-04T02:00:00Z,26.6955,-81.8138,1.704,6.04,1111122 
SCCF RECON,ioos:station:SCCF:18:1,2017-04-04T03:00:00Z,26.6955,-81.8138,1.672,6.35,1111122 
SCCF RECON,ioos:station:SCCF:18:1,2017-04-04T04:00:00Z,26.6955,-81.8138,1.61,6.59,1111122 
SCCF RECON,ioos:station:SCCF:18:1,2017-04-04T05:00:00Z,26.6955,-81.8138,1.553,6.28,1111122 
SCCF RECON,ioos:station:SCCF:18:1,2017-04-04T06:00:00Z,26.6955,-81.8138,1.5,5.99,1111122 
SCCF RECON,ioos:station:SCCF:18:1,2017-04-04T07:00:00Z,26.6955,-81.8138,1.44,5.84,1111122 
SCCF RECON,ioos:station:SCCF:18:1,2017-04-04T08:00:00Z,26.6955,-81.8138,1.379,5.65,1111122 
SCCF RECON,ioos:station:SCCF:18:1,2017-04-04T09:00:00Z,26.6955,-81.8138,1.324,5.54,1111122 
SCCF RECON,ioos:station:SCCF:18:1,2017-04-04T10:00:00Z,26.6955,-81.8138,1.28,5.43,1111122 
SCCF RECON,ioos:station:SCCF:18:1,2017-04-04T11:00:00Z,26.6955,-81.8138,1.261,5.16,1111122 
SCCF RECON,ioos:station:SCCF:18:1,2017-04-04T12:00:00Z,26.6955,-81.8138,1.324,4.76,1111122 
SCCF RECON,ioos:station:SCCF:18:1,2017-04-04T13:00:00Z,26.6955,-81.8138,1.39,4.72,1111122 
SCCF RECON,ioos:station:SCCF:18:1,2017-04-04T14:00:00Z,26.6955,-81.8138,1.452,4.49,1111122 
SCCF RECON,ioos:station:SCCF:18:1,2017-04-04T15:00:00Z,26.6955,-81.8138,1.51,4.95,1111122 
SCCF RECON,ioos:station:SCCF:18:1,2017-04-04T16:00:00Z,26.6955,-81.8138,1.579,4.55,1111122 
SCCF RECON,ioos:station:SCCF:18:1,2017-04-04T17:00:00Z,26.6955,-81.8138,1.63,5.28,1111122 
SCCF RECON,ioos:station:SCCF:18:1,2017-04-04T18:00:00Z,26.6955,-81.8138,1.657,5.28,1111122 
SCCF RECON,ioos:station:SCCF:18:1,2017-04-04T19:00:00Z,26.6955,-81.8138,1.656,5.39,1111122 
SCCF RECON,ioos:station:SCCF:18:1,2017-04-04T20:00:00Z,26.6955,-81.8138,1.61,5.97,1111122 
SCCF RECON,ioos:station:SCCF:18:1,2017-04-04T21:00:00Z,26.6955,-81.8138,1.56,6.41,1111122 
SCCF RECON,ioos:station:SCCF:18:1,2017-04-04T22:00:00Z,26.6955,-81.8138,1.539,5.66,1111122 
SCCF RECON,ioos:station:SCCF:18:1,2017-04-04T23:00:00Z,26.6955,-81.8138,1.524,5.28,1111122 
SCCF RECON,ioos:station:SCCF:18:1,2017-04-05T00:00:00Z,26.6955,-81.8138,1.568,4.98,1111122 
SCCF RECON,ioos:station:SCCF:18:1,2017-04-05T01:00:00Z,26.6955,-81.8138,1.62,5.8,1111122 
SCCF RECON,ioos:station:SCCF:18:1,2017-04-05T02:00:00Z,26.6955,-81.8138,1.68,5.71,1111122 
SCCF RECON,ioos:station:SCCF:18:1,2017-04-05T03:00:00Z,26.6955,-81.8138,1.69,5.55,1111122 
SCCF RECON,ioos:station:SCCF:18:1,2017-04-05T04:00:00Z,26.6955,-81.8138,1.659,5.9,1111122 
SCCF RECON,ioos:station:SCCF:18:1,2017-04-05T05:00:00Z,26.6955,-81.8138,1.59,5.97,1111122 
SCCF RECON,ioos:station:SCCF:18:1,2017-04-05T06:00:00Z,26.6955,-81.8138,1.52,6.03,1111122 
SCCF RECON,ioos:station:SCCF:18:1,2017-04-05T07:00:00Z,26.6955,-81.8138,1.46,5.84,1111122 
SCCF RECON,ioos:station:SCCF:18:1,2017-04-05T08:00:00Z,26.6955,-81.8138,1.4,5.58,1111122 
SCCF RECON,ioos:station:SCCF:18:1,2017-04-05T09:00:00Z,26.6955,-81.8138,1.35,5.56,1111122 
SCCF RECON,ioos:station:SCCF:18:1,2017-04-05T10:00:00Z,26.6955,-81.8138,1.3,5.51,1111122 
SCCF RECON,ioos:station:SCCF:18:1,2017-04-05T11:00:00Z,26.6955,-81.8138,1.26,5.41,1111122 
SCCF RECON,ioos:station:SCCF:18:1,2017-04-05T12:00:00Z,26.6955,-81.8138,1.241,5.35,1111122 
SCCF RECON,ioos:station:SCCF:18:1,2017-04-05T13:00:00Z,26.6955,-81.8138,1.27,4.36,1111122 
SCCF RECON,ioos:station:SCCF:18:1,2017-04-05T14:00:00Z,26.6955,-81.8138,1.35,5.07,1111122 
SCCF RECON,ioos:station:SCCF:18:1,2017-04-05T15:00:00Z,26.6955,-81.8138,1.424,4.4,1111122 
SCCF RECON,ioos:station:SCCF:18:1,2017-04-05T16:00:00Z,26.6955,-81.8138,1.481,4.32,1111122 
SCCF RECON,ioos:station:SCCF:18:1,2017-04-05T17:00:00Z,26.6955,-81.8138,1.53,5.49,1111122 
SCCF RECON,ioos:station:SCCF:18:1,2017-04-05T18:00:00Z,26.6955,-81.8138,1.599,5.57,1111122 
SCCF RECON,ioos:station:SCCF:18:1,2017-04-05T19:00:00Z,26.6955,-81.8138,1.65,5.68,1111122 
SCCF RECON,ioos:station:SCCF:18:1,2017-04-05T20:00:00Z,26.6955,-81.8138,1.659,5.9,1111122 
SCCF RECON,ioos:station:SCCF:18:1,2017-04-05T21:00:00Z,26.6955,-81.8138,1.619,6.57,1111122 
SCCF RECON,ioos:station:SCCF:18:1,2017-04-05T22:00:00Z,26.6955,-81.8138,1.577,7.01,1111122 
SCCF RECON,ioos:station:SCCF:18:1,2017-04-05T23:00:00Z,26.6955,-81.8138,1.53,6.66,1111122 
SCCF RECON,ioos:station:SCCF:18:1,2017-04-06T00:00:00Z,26.6955,-81.8138,1.54,5.3,1111122 
SCCF RECON,ioos:station:SCCF:18:1,2017-04-06T01:00:00Z,26.6955,-81.8138,1.592,5.97,1111122 
SCCF RECON,ioos:station:SCCF:18:1,2017-04-06T02:00:00Z,26.6955,-81.8138,1.652,5.21,1111122 
SCCF RECON,ioos:station:SCCF:18:1,2017-04-06T03:00:00Z,26.6955,-81.8138,1.69,4.85,1111122 
SCCF RECON,ioos:station:SCCF:18:1,2017-04-06T04:00:00Z,26.6955,-81.8138,1.7,4.57,1111122 
SCCF RECON,ioos:station:SCCF:18:1,2017-04-06T05:00:00Z,26.6955,-81.8138,1.706,5.18,1111122 
SCCF RECON,ioos:station:SCCF:18:1,2017-04-06T06:00:00Z,26.6955,-81.8138,1.66,5.84,1111122 
SCCF RECON,ioos:station:SCCF:18:1,2017-04-06T07:00:00Z,26.6955,-81.8138,1.587,5.95,1111122 
SCCF RECON,ioos:station:SCCF:18:1,2017-04-06T08:00:00Z,26.6955,-81.8138,1.532,5.5,1111122 
SCCF RECON,ioos:station:SCCF:18:1,2017-04-06T09:00:00Z,26.6955,-81.8138,1.49,5.16,1111122 
SCCF RECON,ioos:station:SCCF:18:1,2017-04-06T10:00:00Z,26.6955,-81.8138,1.46,5.31,1111122 
SCCF RECON,ioos:station:SCCF:18:1,2017-04-06T11:00:00Z,26.6955,-81.8138,1.395,5.13,1111122 
SCCF RECON,ioos:station:SCCF:18:1,2017-04-06T12:00:00Z,26.6955,-81.8138,1.34,4.99,1111122 
SCCF RECON,ioos:station:SCCF:18:1,2017-04-06T13:00:00Z,26.6955,-81.8138,1.329,4.69,1111122 
SCCF RECON,ioos:station:SCCF:18:1,2017-04-06T14:00:00Z,26.6955,-81.8138,1.38,5.02,1111122 
SCCF RECON,ioos:station:SCCF:18:1,2017-04-06T15:00:00Z,26.6955,-81.8138,1.424,4.86,1111122 
SCCF RECON,ioos:station:SCCF:18:1,2017-04-06T16:00:00Z,26.6955,-81.8138,1.489,4.81,1111122 
SCCF RECON,ioos:station:SCCF:18:1,2017-04-06T17:00:00Z,26.6955,-81.8138,1.52,5.04,1111122 
SCCF RECON,ioos:station:SCCF:18:1,2017-04-06T18:00:00Z,26.6955,-81.8138,1.582,5.11,1111122 
SCCF RECON,ioos:station:SCCF:18:1,2017-04-06T19:00:00Z,26.6955,-81.8138,1.618,4.83,1111122 
SCCF RECON,ioos:station:SCCF:18:1,2017-04-06T20:00:00Z,26.6955,-81.8138,1.57,5.82,1111122 
SCCF RECON,ioos:station:SCCF:18:1,2017-04-06T21:00:00Z,26.6955,-81.8138,1.48,5.56,1111122 
SCCF RECON,ioos:station:SCCF:18:1,2017-04-06T22:00:00Z,26.6955,-81.8138,1.43,5.69,1111122 
SCCF RECON,ioos:station:SCCF:18:1,2017-04-06T23:00:00Z,26.6955,-81.8138,1.4,5.86,1111122 
SCCF RECON,ioos:station:SCCF:18:1,2017-04-07T00:00:00Z,26.6955,-81.8138,1.367,5.86,1111122 
SCCF RECON,ioos:station:SCCF:18:1,2017-04-07T01:00:00Z,26.6955,-81.8138,1.34,5.75,1111122 
SCCF RECON,ioos:station:SCCF:18:1,2017-04-07T02:00:00Z,26.6955,-81.8138,1.323,5.98,1111122 
SCCF RECON,ioos:station:SCCF:18:1,2017-04-07T03:00:00Z,26.6955,-81.8138,1.36,5.64,1111122 
SCCF RECON,ioos:station:SCCF:18:1,2017-04-07T04:00:00Z,26.6955,-81.8138,1.41,4.95,1111122 
SCCF RECON,ioos:station:SCCF:18:1,2017-04-07T05:00:00Z,26.6955,-81.8138,1.458,4.66,1111122 
SCCF RECON,ioos:station:SCCF:18:1,2017-04-07T06:00:00Z,26.6955,-81.8138,1.473,4.86,1111122 
SCCF RECON,ioos:station:SCCF:18:1,2017-04-07T07:00:00Z,26.6955,-81.8138,1.453,5.5,1111122 
SCCF RECON,ioos:station:SCCF:18:1,2017-04-07T08:00:00Z,26.6955,-81.8138,1.41,5.55,1111122 
SCCF RECON,ioos:station:SCCF:18:1,2017-04-07T09:00:00Z,26.6955,-81.8138,1.35,5.51,1111122 
SCCF RECON,ioos:station:SCCF:18:1,2017-04-07T10:00:00Z,26.6955,-81.8138,1.317,5.41,1111122 
SCCF RECON,ioos:station:SCCF:18:1,2017-04-07T11:00:00Z,26.6955,-81.8138,1.27,5.36,1111122 
SCCF RECON,ioos:station:SCCF:18:1,2017-04-07T12:00:00Z,26.6955,-81.8138,1.21,5.27,1111122 
SCCF RECON,ioos:station:SCCF:18:1,2017-04-07T13:00:00Z,26.6955,-81.8138,1.156,5.12,1111122 
SCCF RECON,ioos:station:SCCF:18:1,2017-04-07T14:00:00Z,26.6955,-81.8138,1.12,5.27,1111122 
SCCF RECON,ioos:station:SCCF:18:1,2017-04-07T15:00:00Z,26.6955,-81.8138,1.095,5.35,1111122 
SCCF RECON,ioos:station:SCCF:18:1,2017-04-07T16:00:00Z,26.6955,-81.8138,1.123,5.32,1111122 
SCCF RECON,ioos:station:SCCF:18:1,2017-04-07T17:00:00Z,26.6955,-81.8138,1.198,5.06,1111122 
SCCF RECON,ioos:station:SCCF:18:1,2017-04-07T18:00:00Z,26.6955,-81.8138,1.26,5.16,1111122 
SCCF RECON,ioos:station:SCCF:18:1,2017-04-07T19:00:00Z,26.6955,-81.8138,1.3,5.32,1111122 
SCCF RECON,ioos:station:SCCF:18:1,2017-04-07T20:00:00Z,26.6955,-81.8138,1.33,5.45,1111122 
SCCF RECON,ioos:station:SCCF:18:1,2017-04-07T21:00:00Z,26.6955,-81.8138,1.32,5.51,1111122 
SCCF RECON,ioos:station:SCCF:18:1,2017-04-07T22:00:00Z,26.6955,-81.8138,1.29,6.29,1111122 
SCCF RECON,ioos:station:SCCF:18:1,2017-04-07T23:00:00Z,26.6955,-81.8138,1.241,6.23,1111122 
SCCF RECON,ioos:station:SCCF:18:1,2017-04-08T00:00:00Z,26.6955,-81.8138,1.2,6.06,1111122 
SCCF RECON,ioos:station:SCCF:18:1,2017-04-08T01:00:00Z,26.6955,-81.8138,1.17,5.83,1111122 
SCCF RECON,ioos:station:SCCF:18:1,2017-04-08T02:00:00Z,26.6955,-81.8138,1.16,5.58,1111122 
SCCF RECON,ioos:station:SCCF:18:1,2017-04-08T03:00:00Z,26.6955,-81.8138,1.19,5.52,1111122 
SCCF RECON,ioos:station:SCCF:18:1,2017-04-08T04:00:00Z,26.6955,-81.8138,1.253,4.68,1111122 
SCCF RECON,ioos:station:SCCF:18:1,2017-04-08T05:00:00Z,26.6955,-81.8138,1.31,4.94,1111122 
SCCF RECON,ioos:station:SCCF:18:1,2017-04-08T06:00:00Z,26.6955,-81.8138,1.359,5.24,1111122 
SCCF RECON,ioos:station:SCCF:18:1,2017-04-08T07:00:00Z,26.6955,-81.8138,1.39,5.58,1111122 
SCCF RECON,ioos:station:SCCF:18:1,2017-04-08T08:00:00Z,26.6955,-81.8138,1.401,5.28,1111122 
SCCF RECON,ioos:station:SCCF:18:1,2017-04-08T09:00:00Z,26.6955,-81.8138,1.355,5.54,1111122 
SCCF RECON,ioos:station:SCCF:18:1,2017-04-08T10:00:00Z,26.6955,-81.8138,1.3,5.36,1111122 
SCCF RECON,ioos:station:SCCF:18:1,2017-04-08T11:00:00Z,26.6955,-81.8138,1.248,5.39,1111122 
SCCF RECON,ioos:station:SCCF:18:1,2017-04-08T12:00:00Z,26.6955,-81.8138,1.215,5.41,1111122 
SCCF RECON,ioos:station:SCCF:18:1,2017-04-08T13:00:00Z,26.6955,-81.8138,1.177,5.39,1111122 
SCCF RECON,ioos:station:SCCF:18:1,2017-04-08T14:00:00Z,26.6955,-81.8138,1.136,5.44,1111122 
SCCF RECON,ioos:station:SCCF:18:1,2017-04-08T15:00:00Z,26.6955,-81.8138,1.137,5.38,1111122 
SCCF RECON,ioos:station:SCCF:18:1,2017-04-08T16:00:00Z,26.6955,-81.8138,1.19,5.16,1111122 
SCCF RECON,ioos:station:SCCF:18:1,2017-04-08T17:00:00Z,26.6955,-81.8138,1.28,5.29,1111122 
SCCF RECON,ioos:station:SCCF:18:1,2017-04-08T18:00:00Z,26.6955,-81.8138,1.34,5.21,1111122 
SCCF RECON,ioos:station:SCCF:18:1,2017-04-08T19:00:00Z,26.6955,-81.8138,1.381,5.95,1111122 
SCCF RECON,ioos:station:SCCF:18:1,2017-04-08T20:00:00Z,26.6955,-81.8138,1.41,6.16,1111122 
SCCF RECON,ioos:station:SCCF:18:1,2017-04-08T21:00:00Z,26.6955,-81.8138,1.4,6.53,1111122 
SCCF RECON,ioos:station:SCCF:18:1,2017-04-08T22:00:00Z,26.6955,-81.8138,1.36,6.61,1111122 
SCCF RECON,ioos:station:SCCF:18:1,2017-04-08T23:00:00Z,26.6955,-81.8138,1.32,6.85,1111122 
SCCF RECON,ioos:station:SCCF:18:1,2017-04-09T00:00:00Z,26.6955,-81.8138,1.28,6.3,1111122 
SCCF RECON,ioos:station:SCCF:18:1,2017-04-09T01:00:00Z,26.6955,-81.8138,1.24,6.32,1111122 
SCCF RECON,ioos:station:SCCF:18:1,2017-04-09T02:00:00Z,26.6955,-81.8138,1.205,6.2,1111122 
SCCF RECON,ioos:station:SCCF:18:1,2017-04-09T03:00:00Z,26.6955,-81.8138,1.2,6.24,1111122 
SCCF RECON,ioos:station:SCCF:18:1,2017-04-09T04:00:00Z,26.6955,-81.8138,1.25,5.82,1111122 
SCCF RECON,ioos:station:SCCF:18:1,2017-04-09T05:00:00Z,26.6955,-81.8138,1.32,5.02,1111122 
SCCF RECON,ioos:station:SCCF:18:1,2017-04-09T06:00:00Z,26.6955,-81.8138,1.378,5.06,1111122 
SCCF RECON,ioos:station:SCCF:18:1,2017-04-09T07:00:00Z,26.6955,-81.8138,1.4,5.54,1111122 
SCCF RECON,ioos:station:SCCF:18:1,2017-04-09T08:00:00Z,26.6955,-81.8138,1.42,5.53,1111122 
SCCF RECON,ioos:station:SCCF:18:1,2017-04-09T09:00:00Z,26.6955,-81.8138,1.374,5.83,1111122 
SCCF RECON,ioos:station:SCCF:18:1,2017-04-09T10:00:00Z,26.6955,-81.8138,1.31,5.79,1111122 
SCCF RECON,ioos:station:SCCF:18:1,2017-04-09T11:00:00Z,26.6955,-81.8138,1.26,5.61,1111122 
SCCF RECON,ioos:station:SCCF:18:1,2017-04-09T12:00:00Z,26.6955,-81.8138,1.23,5.55,1111122 
SCCF RECON,ioos:station:SCCF:18:1,2017-04-09T13:00:00Z,26.6955,-81.8138,1.188,5.6,1111122 
SCCF RECON,ioos:station:SCCF:18:1,2017-04-09T14:00:00Z,26.6955,-81.8138,1.14,5.8,1111122 
SCCF RECON,ioos:station:SCCF:18:1,2017-04-09T15:00:00Z,26.6955,-81.8138,1.102,5.84,1111122 
SCCF RECON,ioos:station:SCCF:18:1,2017-04-09T16:00:00Z,26.6955,-81.8138,1.137,5.86,1111122 
SCCF RECON,ioos:station:SCCF:18:1,2017-04-09T17:00:00Z,26.6955,-81.8138,1.21,5.84,1111122 
SCCF RECON,ioos:station:SCCF:18:1,2017-04-09T18:00:00Z,26.6955,-81.8138,1.28,5.86,1111122 
SCCF RECON,ioos:station:SCCF:18:1,2017-04-09T19:00:00Z,26.6955,-81.8138,1.34,6.11,1111122 
SCCF RECON,ioos:station:SCCF:18:1,2017-04-09T20:00:00Z,26.6955,-81.8138,1.37,6.42,1111122 
SCCF RECON,ioos:station:SCCF:18:1,2017-04-09T21:00:00Z,26.6955,-81.8138,1.403,6.37,1111122 
SCCF RECON,ioos:station:SCCF:18:1,2017-04-09T22:00:00Z,26.6955,-81.8138,1.391,6.93,1111122 
SCCF RECON,ioos:station:SCCF:18:1,2017-04-09T23:00:00Z,26.6955,-81.8138,1.35,7.04,1111122 
SCCF RECON,ioos:station:SCCF:18:1,2017-04-10T00:00:00Z,26.6955,-81.8138,1.301,7.05,1111122 
SCCF RECON,ioos:station:SCCF:18:1,2017-04-10T01:00:00Z,26.6955,-81.8138,1.267,6.83,1111122 
SCCF RECON,ioos:station:SCCF:18:1,2017-04-10T02:00:00Z,26.6955,-81.8138,1.237,6.69,1111122 
SCCF RECON,ioos:station:SCCF:18:1,2017-04-10T03:00:00Z,26.6955,-81.8138,1.21,6.54,1111122 
SCCF RECON,ioos:station:SCCF:18:1,2017-04-10T04:00:00Z,26.6955,-81.8138,1.249,6.28,1111122 
SCCF RECON,ioos:station:SCCF:18:1,2017-04-10T05:00:00Z,26.6955,-81.8138,1.312,5.98,1111122 
SCCF RECON,ioos:station:SCCF:18:1,2017-04-10T06:00:00Z,26.6955,-81.8138,1.39,5.72,1111122 
SCCF RECON,ioos:station:SCCF:18:1,2017-04-10T07:00:00Z,26.6955,-81.8138,1.429,5.55,1111122 
SCCF RECON,ioos:station:SCCF:18:1,2017-04-10T08:00:00Z,26.6955,-81.8138,1.47,6.05,1111122 
SCCF RECON,ioos:station:SCCF:18:1,2017-04-10T09:00:00Z,26.6955,-81.8138,1.5,5.79,1111122 
SCCF RECON,ioos:station:SCCF:18:1,2017-04-10T10:00:00Z,26.6955,-81.8138,1.47,6.12,1111122 
SCCF RECON,ioos:station:SCCF:18:1,2017-04-10T11:00:00Z,26.6955,-81.8138,1.403,5.87,1111122 
SCCF RECON,ioos:station:SCCF:18:1,2017-04-10T12:00:00Z,26.6955,-81.8138,1.35,5.78,1111122 
SCCF RECON,ioos:station:SCCF:18:1,2017-04-10T13:00:00Z,26.6955,-81.8138,1.31,5.92,1111122 
SCCF RECON,ioos:station:SCCF:18:1,2017-04-10T14:00:00Z,26.6955,-81.8138,1.27,6.12,1111122 
SCCF RECON,ioos:station:SCCF:18:1,2017-04-10T15:00:00Z,26.6955,-81.8138,1.241,6.18,1111122 
SCCF RECON,ioos:station:SCCF:18:1,2017-04-10T16:00:00Z,26.6955,-81.8138,1.284,6.1,1111122 
SCCF RECON,ioos:station:SCCF:18:1,2017-04-10T17:00:00Z,26.6955,-81.8138,1.366,5.84,1111122 
SCCF RECON,ioos:station:SCCF:18:1,2017-04-10T18:00:00Z,26.6955,-81.8138,1.46,5.92,1111122 
SCCF RECON,ioos:station:SCCF:18:1,2017-04-10T19:00:00Z,26.6955,-81.8138,1.49,5.98,1111122 
SCCF RECON,ioos:station:SCCF:18:1,2017-04-10T20:00:00Z,26.6955,-81.8138,1.52,6.42,1111122 
SCCF RECON,ioos:station:SCCF:18:1,2017-04-10T21:00:00Z,26.6955,-81.8138,1.53,5.84,1111122 
SCCF RECON,ioos:station:SCCF:18:1,2017-04-10T22:00:00Z,26.6955,-81.8138,1.46,6.86,1111122 
SCCF RECON,ioos:station:SCCF:18:1,2017-04-10T23:00:00Z,26.6955,-81.8138,1.379,7.04,1111122 
SCCF RECON,ioos:station:SCCF:18:1,2017-04-11T00:00:00Z,26.6955,-81.8138,1.33,6.86,1111122 
SCCF RECON,ioos:station:SCCF:18:1,2017-04-11T01:00:00Z,26.6955,-81.8138,1.31,6.77,1111122 
SCCF RECON,ioos:station:SCCF:18:1,2017-04-11T02:00:00Z,26.6955,-81.8138,1.277,6.81,1111122 
SCCF RECON,ioos:station:SCCF:18:1,2017-04-11T03:00:00Z,26.6955,-81.8138,1.23,6.73,1111122 
SCCF RECON,ioos:station:SCCF:18:1,2017-04-11T04:00:00Z,26.6955,-81.8138,1.2,6.53,1111122 
SCCF RECON,ioos:station:SCCF:18:1,2017-04-11T05:00:00Z,26.6955,-81.8138,1.23,6.27,1111122 
SCCF RECON,ioos:station:SCCF:18:1,2017-04-11T06:00:00Z,26.6955,-81.8138,1.28,5.79,1111122 
SCCF RECON,ioos:station:SCCF:18:1,2017-04-11T07:00:00Z,26.6955,-81.8138,1.358,5.55,1111122 
SCCF RECON,ioos:station:SCCF:18:1,2017-04-11T08:00:00Z,26.6955,-81.8138,1.405,5.76,1111122 
SCCF RECON,ioos:station:SCCF:18:1,2017-04-11T09:00:00Z,26.6955,-81.8138,1.44,5.96,1111122 
SCCF RECON,ioos:station:SCCF:18:1,2017-04-11T10:00:00Z,26.6955,-81.8138,1.45,5.74,1111122 
SCCF RECON,ioos:station:SCCF:18:1,2017-04-11T11:00:00Z,26.6955,-81.8138,1.4,6.1,1111122 
SCCF RECON,ioos:station:SCCF:18:1,2017-04-11T12:00:00Z,26.6955,-81.8138,1.331,5.98,1111122 
SCCF RECON,ioos:station:SCCF:18:1,2017-04-11T13:00:00Z,26.6955,-81.8138,1.3,5.92,1111122 
SCCF RECON,ioos:station:SCCF:18:1,2017-04-11T14:00:00Z,26.6955,-81.8138,1.27,6.16,1111122 
SCCF RECON,ioos:station:SCCF:18:1,2017-04-11T15:00:00Z,26.6955,-81.8138,1.24,6.35,1111122 
SCCF RECON,ioos:station:SCCF:18:1,2017-04-11T16:00:00Z,26.6955,-81.8138,1.26,5.8,1111122 
SCCF RECON,ioos:station:SCCF:18:1,2017-04-11T17:00:00Z,26.6955,-81.8138,1.35,6.13,1111122 
SCCF RECON,ioos:station:SCCF:18:1,2017-04-11T18:00:00Z,26.6955,-81.8138,1.444,5.99,1111122 
SCCF RECON,ioos:station:SCCF:18:1,2017-04-11T19:00:00Z,26.6955,-81.8138,1.49,6.55,1111122 
SCCF RECON,ioos:station:SCCF:18:1,2017-04-11T20:00:00Z,26.6955,-81.8138,1.525,6.73,1111122 